Weather History for Frenchville, ME

Change the Weather History Date:

Friday, April 26, 2013

  Actual Average Record
Temperature  
Mean Temperature 41 °F 42 °F  
Max Temperature 56 °F 51 °F 56 °F (2011)
Min Temperature 26 °F 34 °F 23 °F (1998)
Degree Days  
Heating Degree Days 24    
Month to date heating degree days 803  
Since 1 July heating degree days 8426  
Cooling Degree Days 0    
Month to date cooling degree days 0  
Year to date cooling degree days 0  
Moisture  
Dew Point 21 °F    
Average Humidity 48    
Maximum Humidity 81    
Minimum Humidity 20    
Precipitation  
Precipitation 0.00 in 0.09 in 0.29 in (2002)
Month to date precipitation 1.04 2.44  
Year to date precipitation 4.20 6.49  
Sea Level Pressure  
Sea Level Pressure 30.42 in    
Wind  
Wind Speed 5 mph (North)    
Max Wind Speed 12 mph    
Max Gust Speed 18 mph    
Visibility 10 miles    
Events      
T = Trace of Precipitation, MM = Missing Value Source: NWS Daily Summary

Daily Weather History Graph

Daily Weather History Graph

Search for Another Location

Airport:

Trip Planner

Search our weather history database for the weather conditions in past years. The results will help you decide how hot, cold, wet, or windy it might be!

Date:

Astronomy

Apr. 26, 2013 Rise Set
Actual Time 5:24 AM EDT 7:37 PM EDT
Civil Twilight 4:51 AM EDT 8:11 PM EDT
Nautical Twilight 4:09 AM EDT 8:53 PM EDT
Astronomical Twilight 3:23 AM EDT 9:40 PM EDT
Moon 9:02 PM EDT (4/26) 5:46 AM EDT (4/26)
Length of Visible Light 15h 20m
Length of Day
14h 13m
Full, 99% of the Moon is Illuminated
Apr 26
Full
May 2
Last Quarter
May 9
New
May 18
First Quarter
May 25
Full

Hourly Weather History & Observations

Time (EDT) Temp. Windchill Dew Point Humidity Pressure Visibility Wind Dir Wind Speed Gust Speed Precip Events Conditions
12:53 AM 32.0 °F 26.4 °F 24.1 °F 73% 30.33 in 10.0 mi NNW 5.8 mph - N/A   Clear
1:53 AM 30.9 °F 25.2 °F 23.0 °F 72% 30.35 in 10.0 mi NNW 5.8 mph - N/A   Clear
2:53 AM 30.2 °F 25.4 °F 23.0 °F 75% 30.34 in 10.0 mi NNW 4.6 mph - N/A   Clear
3:53 AM 30.0 °F 25.2 °F 23.0 °F 75% 30.38 in 10.0 mi North 4.6 mph - N/A   Clear
4:53 AM 28.9 °F 23.9 °F 23.0 °F 78% 30.41 in 10.0 mi NNW 4.6 mph - N/A   Clear
5:53 AM 28.0 °F 20.8 °F 23.0 °F 81% 30.42 in 10.0 mi NNW 6.9 mph - N/A   Clear
6:53 AM 30.9 °F 25.2 °F 25.0 °F 79% 30.45 in 10.0 mi North 5.8 mph - N/A   Clear
7:53 AM 37.0 °F 30.4 °F 21.9 °F 54% 30.46 in 10.0 mi NE 9.2 mph - N/A   Clear
8:53 AM 39.0 °F 32.8 °F 21.0 °F 49% 30.47 in 10.0 mi East 9.2 mph - N/A   Clear
9:53 AM 42.1 °F 37.7 °F 21.0 °F 43% 30.47 in 10.0 mi ESE 6.9 mph - N/A   Clear
10:53 AM 45.0 °F - 19.0 °F 36% 30.47 in 10.0 mi Calm Calm - N/A   Clear
11:53 AM 48.0 °F - 19.9 °F 33% 30.46 in 10.0 mi Calm Calm - N/A   Clear
12:53 PM 50.0 °F - 18.0 °F 28% 30.45 in 10.0 mi Variable 3.5 mph - N/A   Clear
1:53 PM 51.1 °F - 18.0 °F 27% 30.43 in 10.0 mi ESE 4.6 mph - N/A   Clear
2:53 PM 54.0 °F - 17.1 °F 23% 30.42 in 10.0 mi West 4.6 mph - N/A   Clear
3:53 PM 54.0 °F - 16.0 °F 22% 30.40 in 10.0 mi East 4.6 mph - N/A   Clear
4:53 PM 55.0 °F - 14.0 °F 20% 30.40 in 10.0 mi North 5.8 mph - N/A   Clear
5:53 PM 54.0 °F - 15.1 °F 22% 30.40 in 10.0 mi ESE 6.9 mph - N/A   Clear
6:53 PM 53.1 °F - 12.9 °F 20% 30.40 in 10.0 mi Calm Calm - N/A   Clear
7:53 PM 46.0 °F 41.4 °F 21.9 °F 39% 30.41 in 10.0 mi NNW 9.2 mph - N/A   Clear
8:53 PM 44.1 °F 38.6 °F 24.1 °F 45% 30.43 in 10.0 mi North 10.4 mph - N/A   Clear
9:53 PM 42.1 °F 37.7 °F 24.1 °F 49% 30.43 in 10.0 mi North 6.9 mph - N/A   Clear
10:53 PM 39.0 °F 35.7 °F 24.1 °F 55% 30.43 in 10.0 mi North 4.6 mph - N/A   Clear
11:53 PM 37.9 °F 33.5 °F 24.1 °F 57% 30.44 in 10.0 mi North 5.8 mph - N/A   Clear